| time (UTC) | temp F | wind direction | speed MPH | gust MPH | rain 1hr in | rain 24hr in | rain mn in | humidity % | barometer mb |
| 20260506175215 | 55 | 338 | 9.0 | 11.0 | 0.00 | 0.00 | 0.00 | 38 | 1018.0 |
| 20260506174235 | 55 | 270 | 7.0 | 12.0 | 0.00 | 0.00 | 0.00 | 40 | 1018.1 |
| 20260506173215 | 55 | 293 | 10.0 | 14.0 | 0.00 | 0.00 | 0.00 | 40 | 1018.2 |
| 20260506172215 | 55 | 315 | 7.0 | 10.0 | 0.00 | 0.00 | 0.00 | 39 | 1018.0 |
| 20260506171215 | 54 | 293 | 5.0 | 8.0 | 0.00 | 0.00 | 0.00 | 40 | 1018.1 |
| 20260506170215 | 54 | 270 | 8.0 | 11.0 | 0.00 | 0.00 | 0.00 | 41 | 1018.1 |
| 20260506165215 | 54 | 293 | 7.0 | 10.0 | 0.00 | 0.00 | 0.00 | 43 | 1018.1 |
| 20260506164215 | 54 | 0 | 8.0 | 10.0 | 0.00 | 0.00 | 0.00 | 43 | 1018.2 |
| 20260506163215 | 53 | 315 | 7.0 | 11.0 | 0.00 | 0.00 | 0.00 | 43 | 1018.2 |
| 20260506162217 | 52 | 315 | 10.0 | 14.0 | 0.00 | 0.00 | 0.00 | 45 | 1018.2 |
| 20260506161217 | 52 | 338 | 9.0 | 13.0 | 0.00 | 0.00 | 0.00 | 46 | 1018.4 |
| 20260506160217 | 52 | 23 | 6.0 | 9.0 | 0.00 | 0.00 | 0.00 | 45 | 1018.2 |
| 20260506155215 | 52 | 315 | 10.0 | 14.0 | 0.00 | 0.00 | 0.00 | 44 | 1018.2 |
| 20260506154217 | 51 | 315 | 10.0 | 14.0 | 0.00 | 0.00 | 0.00 | 45 | 1018.1 |
| 20260506153217 | 51 | 338 | 8.0 | 12.0 | 0.00 | 0.00 | 0.00 | 49 | 1018.1 |
| 20260506152217 | 51 | 315 | 10.0 | 14.0 | 0.00 | 0.00 | 0.00 | 48 | 1018.0 |
| 20260506151217 | 50 | 315 | 12.0 | 17.0 | 0.00 | 0.00 | 0.00 | 49 | 1017.9 |
| 20260506150217 | 50 | 338 | 8.0 | 12.0 | 0.00 | 0.00 | 0.00 | 48 | 1017.9 |
| 20260506145217 | 50 | 293 | 9.0 | 16.0 | 0.00 | 0.00 | 0.00 | 51 | 1017.7 |
| 20260506144217 | 50 | 338 | 5.0 | 8.0 | 0.00 | 0.00 | 0.00 | 52 | 1017.6 |
| 20260506143217 | 49 | 315 | 9.0 | 14.0 | 0.00 | 0.00 | 0.00 | 53 | 1017.5 |
| 20260506142217 | 48 | 315 | 7.0 | 11.0 | 0.00 | 0.00 | 0.00 | 57 | 1017.4 |
| 20260506141217 | 47 | 338 | 8.0 | 11.0 | 0.00 | 0.00 | 0.00 | 59 | 1017.3 |
| 20260506140217 | 47 | 338 | 10.0 | 13.0 | 0.00 | 0.00 | 0.00 | 60 | 1017.2 |
| 20260506135217 | 47 | 315 | 4.0 | 6.0 | 0.00 | 0.00 | 0.00 | 61 | 1017.2 |
| 20260506134217 | 46 | 315 | 4.0 | 6.0 | 0.00 | 0.00 | 0.00 | 61 | 1017.2 |
| 20260506133217 | 46 | 315 | 10.0 | 14.0 | 0.00 | 0.00 | 0.00 | 62 | 1017.2 |
| 20260506132257 | 46 | 293 | 5.0 | 8.0 | 0.00 | 0.00 | 0.00 | 66 | 1017.0 |
| 20260506131217 | 45 | 315 | 4.0 | 6.0 | 0.00 | 0.00 | 0.00 | 67 | 1017.1 |
| 20260506130217 | 45 | 293 | 3.0 | 4.0 | 0.00 | 0.00 | 0.00 | 68 | 1017.0 |
| 20260506125217 | 44 | 315 | 3.0 | 4.0 | 0.00 | 0.00 | 0.00 | 71 | 1017.1 |
| 20260506124216 | 44 | 293 | 4.0 | 5.0 | 0.00 | 0.00 | 0.00 | 73 | 1017.0 |
| 20260506123216 | 44 | 293 | 3.0 | 3.0 | 0.00 | 0.00 | 0.00 | 73 | 1016.8 |
| 20260506122217 | 43 | 293 | 2.0 | 3.0 | 0.00 | 0.00 | 0.00 | 73 | 1016.5 |
| 20260506121216 | 43 | 315 | 2.0 | 3.0 | 0.00 | 0.00 | 0.00 | 73 | 1016.4 |
| 20260506120216 | 43 | 293 | 3.0 | 4.0 | 0.00 | 0.00 | 0.00 | 74 | 1016.1 |
| 20260506115316 | 43 | 293 | 3.0 | 4.0 | 0.00 | 0.00 | 0.00 | 73 | 1015.8 |
| 20260506114217 | 43 | 293 | 3.0 | 4.0 | 0.00 | 0.00 | 0.00 | 73 | 1015.4 |
| 20260506113237 | 43 | 293 | 3.0 | 4.0 | 0.00 | 0.00 | 0.00 | 74 | 1015.2 |
| 20260506112216 | 44 | 293 | 2.0 | 3.0 | 0.00 | 0.00 | 0.00 | 73 | 1015.2 |
| 20260506111216 | 44 | 0.0 | 0.0 | 0.00 | 0.00 | 0.00 | 72 | 1015.1 | |
| 20260506110217 | 44 | 293 | 2.0 | 3.0 | 0.00 | 0.00 | 0.00 | 70 | 1014.9 |
| 20260506105216 | 44 | 293 | 2.0 | 3.0 | 0.00 | 0.00 | 0.00 | 69 | 1014.6 |
| 20260506104216 | 44 | 315 | 2.0 | 3.0 | 0.00 | 0.00 | 0.00 | 69 | 1014.5 |
| 20260506103216 | 44 | 293 | 2.0 | 3.0 | 0.00 | 0.00 | 0.00 | 68 | 1014.5 |
| 20260506102216 | 44 | 293 | 2.0 | 3.0 | 0.00 | 0.00 | 0.00 | 67 | 1014.4 |
| 20260506101216 | 44 | 315 | 1.0 | 2.0 | 0.00 | 0.00 | 0.00 | 66 | 1014.0 |
| 20260506100216 | 44 | 0.0 | 0.0 | 0.00 | 0.00 | 0.00 | 66 | 1014.1 | |
| 20260506095216 | 44 | 315 | 2.0 | 3.0 | 0.00 | 0.00 | 0.00 | 66 | 1014.2 |
| 20260506094236 | 44 | 315 | 2.0 | 3.0 | 0.00 | 0.00 | 0.00 | 66 | 1014.2 |
| 20260506093236 | 45 | 293 | 2.0 | 2.0 | 0.00 | 0.00 | 0.00 | 66 | 1014.3 |
| 20260506092236 | 45 | 315 | 1.0 | 2.0 | 0.00 | 0.00 | 0.00 | 65 | 1014.4 |
| 20260506091216 | 45 | 0.0 | 1.0 | 0.00 | 0.00 | 0.00 | 64 | 1014.1 | |
| 20260506090216 | 46 | 315 | 2.0 | 3.0 | 0.00 | 0.00 | 0.00 | 64 | 1014.2 |
| 20260506085236 | 46 | 293 | 2.0 | 2.0 | 0.00 | 0.00 | 0.00 | 64 | 1014.1 |
| 20260506084216 | 46 | 315 | 3.0 | 5.0 | 0.00 | 0.00 | 0.00 | 62 | 1013.8 |
| 20260506083236 | 47 | 0 | 1.0 | 2.0 | 0.00 | 0.00 | 0.00 | 61 | 1013.8 |
| 20260506082216 | 47 | 338 | 3.0 | 4.0 | 0.00 | 0.00 | 0.00 | 61 | 1013.6 |
| 20260506081236 | 47 | 338 | 2.0 | 5.0 | 0.00 | 0.00 | 0.00 | 61 | 1013.6 |
| 20260506080216 | 47 | 315 | 2.0 | 4.0 | 0.00 | 0.00 | 0.00 | 60 | 1013.7 |
| 20260506073216 | 48 | 315 | 3.0 | 6.0 | 0.00 | 0.00 | 0.00 | 59 | 1013.3 |
| 20260506072216 | 48 | 338 | 4.0 | 6.0 | 0.00 | 0.00 | 0.00 | 59 | 1013.3 |
| 20260506071236 | 48 | 338 | 2.0 | 4.0 | 0.00 | 0.00 | 0.00 | 59 | 1013.4 |
| 20260506070236 | 48 | 338 | 2.0 | 5.0 | 0.00 | 0.00 | 0.00 | 60 | 1013.6 |
| 20260506062216 | 48 | 23 | 3.0 | 5.0 | 0.00 | 0.00 | 0.00 | 63 | 1013.1 |
| 20260506061216 | 48 | 315 | 4.0 | 9.0 | 0.00 | 0.00 | 0.00 | 66 | 1013.1 |
| 20260506060256 | 48 | 315 | 2.0 | 3.0 | 0.00 | 0.00 | 0.00 | 69 | 1013.0 |
| 20260506051215 | 48 | 293 | 4.0 | 6.0 | 0.00 | 0.00 | 0.00 | 71 | 1012.3 |
| 20260506050217 | 48 | 293 | 3.0 | 6.0 | 0.00 | 0.00 | 0.00 | 71 | 1012.3 |
| 20260506044236 | 48 | 225 | 2.0 | 3.0 | 0.00 | 0.00 | 0.00 | 71 | 1012.0 |
| 20260506043215 | 48 | 0.0 | 0.0 | 0.00 | 0.00 | 0.00 | 71 | 1012.0 | |
| 20260506042215 | 49 | 0.0 | 0.0 | 0.00 | 0.00 | 0.00 | 70 | 1012.0 | |
| 20260506041216 | 49 | 0.0 | 0.0 | 0.00 | 0.00 | 0.00 | 69 | 1011.9 | |
| 20260506040215 | 50 | 225 | 1.0 | 3.0 | 0.00 | 0.00 | 0.00 | 69 | 1012.0 |
| 20260506035215 | 50 | 225 | 2.0 | 4.0 | 0.00 | 0.00 | 0.00 | 67 | 1012.1 |
| 20260506034215 | 50 | 0.0 | 0.0 | 0.00 | 0.00 | 0.00 | 66 | 1012.2 | |
| 20260506033215 | 51 | 225 | 2.0 | 4.0 | 0.00 | 0.00 | 0.00 | 66 | 1012.3 |
| 20260506032215 | 51 | 225 | 2.0 | 3.0 | 0.00 | 0.00 | 0.00 | 66 | 1012.5 |
| 20260506031215 | 51 | 0.0 | 1.0 | 0.00 | 0.00 | 0.00 | 66 | 1012.4 | |
| 20260506030216 | 51 | 0.0 | 1.0 | 0.00 | 0.00 | 0.00 | 66 | 1012.4 | |
| 20260506025235 | 51 | 203 | 2.0 | 3.0 | 0.00 | 0.00 | 0.00 | 66 | 1012.3 |
| 20260506024215 | 52 | 248 | 2.0 | 4.0 | 0.00 | 0.00 | 0.00 | 64 | 1012.0 |
| 20260506023215 | 52 | 248 | 1.0 | 3.0 | 0.00 | 0.00 | 0.00 | 63 | 1011.9 |
| 20260506022215 | 52 | 225 | 2.0 | 3.0 | 0.00 | 0.00 | 0.00 | 63 | 1011.9 |
| 20260506021217 | 52 | 225 | 1.0 | 2.0 | 0.00 | 0.00 | 0.00 | 63 | 1011.9 |
| 20260506020237 | 52 | 0.0 | 0.0 | 0.00 | 0.00 | 0.00 | 62 | 1011.6 | |
| 20260506015237 | 52 | 203 | 1.0 | 2.0 | 0.00 | 0.00 | 0.00 | 61 | 1011.5 |
| 20260506014257 | 52 | 0.0 | 0.0 | 0.00 | 0.00 | 0.00 | 60 | 1011.4 | |
| 20260506013217 | 52 | 225 | 1.0 | 2.0 | 0.00 | 0.00 | 0.00 | 62 | 1011.4 |
| 20260506012217 | 53 | 0.0 | 0.0 | 0.00 | 0.00 | 0.00 | 60 | 1011.1 | |
| 20260506011237 | 53 | 0.0 | 0.0 | 0.00 | 0.00 | 0.00 | 57 | 1010.8 | |
| 20260506010217 | 53 | 0.0 | 0.0 | 0.00 | 0.00 | 0.00 | 56 | 1010.9 | |
| 20260506005217 | 54 | 0.0 | 0.0 | 0.00 | 0.00 | 0.00 | 55 | 1011.2 | |
| 20260506004217 | 54 | 270 | 1.0 | 3.0 | 0.00 | 0.00 | 0.00 | 54 | 1011.1 |
| 20260506003217 | 54 | 293 | 1.0 | 2.0 | 0.00 | 0.00 | 0.00 | 53 | 1011.1 |
| 20260506002217 | 54 | 270 | 2.0 | 3.0 | 0.00 | 0.00 | 0.00 | 54 | 1010.9 |
| 20260506001217 | 54 | 293 | 3.0 | 4.0 | 0.00 | 0.00 | 0.00 | 52 | 1010.9 |
| 20260506000219 | 55 | 293 | 3.0 | 3.0 | 0.00 | 0.00 | 0.00 | 52 | 1010.8 |
| 20260505235217 | 55 | 293 | 4.0 | 8.0 | 0.00 | 0.00 | 0.00 | 49 | 1010.9 |
| 20260505234217 | 55 | 293 | 7.0 | 10.0 | 0.00 | 0.00 | 0.00 | 49 | 1011.1 |
| 20260505233237 | 55 | 293 | 7.0 | 10.0 | 0.00 | 0.00 | 0.00 | 49 | 1011.0 |
| 20260505232237 | 55 | 270 | 3.0 | 5.0 | 0.00 | 0.00 | 0.00 | 50 | 1010.9 |
| 20260505231217 | 55 | 315 | 6.0 | 9.0 | 0.00 | 0.00 | 0.00 | 48 | 1010.7 |
| 20260505230217 | 55 | 293 | 5.0 | 8.0 | 0.00 | 0.00 | 0.00 | 48 | 1011.0 |
| 20260505225237 | 55 | 293 | 7.0 | 9.0 | 0.00 | 0.00 | 0.00 | 48 | 1010.8 |
| 20260505224217 | 55 | 315 | 7.0 | 8.0 | 0.00 | 0.00 | 0.00 | 48 | 1010.9 |
| 20260505223217 | 56 | 293 | 6.0 | 9.0 | 0.00 | 0.00 | 0.00 | 49 | 1010.9 |
| 20260505222217 | 56 | 293 | 7.0 | 10.0 | 0.00 | 0.00 | 0.00 | 48 | 1010.9 |
| 20260505221217 | 56 | 293 | 6.0 | 12.0 | 0.00 | 0.00 | 0.00 | 49 | 1011.0 |
| 20260505220216 | 55 | 315 | 3.0 | 5.0 | 0.00 | 0.00 | 0.00 | 50 | 1011.0 |
| 20260505215217 | 56 | 293 | 8.0 | 10.0 | 0.00 | 0.00 | 0.00 | 49 | 1011.3 |
| 20260505214217 | 55 | 293 | 7.0 | 8.0 | 0.00 | 0.00 | 0.00 | 49 | 1011.3 |
| 20260505213237 | 55 | 293 | 8.0 | 11.0 | 0.00 | 0.00 | 0.00 | 49 | 1011.4 |
| 20260505212217 | 55 | 315 | 6.0 | 9.0 | 0.00 | 0.00 | 0.00 | 50 | 1011.3 |
| 20260505211216 | 55 | 293 | 10.0 | 13.0 | 0.00 | 0.00 | 0.00 | 47 | 1011.4 |
| 20260505210217 | 56 | 315 | 5.0 | 7.0 | 0.00 | 0.00 | 0.00 | 49 | 1011.4 |
| 20260505205237 | 56 | 315 | 6.0 | 8.0 | 0.00 | 0.00 | 0.00 | 48 | 1011.4 |
| 20260505204217 | 56 | 315 | 8.0 | 10.0 | 0.00 | 0.00 | 0.00 | 47 | 1011.3 |
| 20260505203216 | 56 | 293 | 9.0 | 11.0 | 0.00 | 0.00 | 0.00 | 49 | 1011.4 |
| 20260505202216 | 56 | 293 | 5.0 | 7.0 | 0.00 | 0.00 | 0.00 | 51 | 1011.5 |
| 20260505201216 | 55 | 315 | 7.0 | 10.0 | 0.00 | 0.00 | 0.00 | 50 | 1011.6 |
| 20260505200216 | 55 | 315 | 7.0 | 9.0 | 0.00 | 0.00 | 0.00 | 50 | 1011.8 |
| 20260505195216 | 55 | 293 | 4.0 | 8.0 | 0.00 | 0.00 | 0.00 | 51 | 1012.0 |
| 20260505194216 | 55 | 315 | 3.0 | 5.0 | 0.00 | 0.00 | 0.00 | 51 | 1012.2 |
| 20260505193218 | 54 | 270 | 5.0 | 7.0 | 0.00 | 0.00 | 0.00 | 52 | 1012.2 |
| 20260505192216 | 54 | 293 | 7.0 | 11.0 | 0.00 | 0.00 | 0.00 | 53 | 1012.2 |
| 20260505191256 | 53 | 270 | 4.0 | 7.0 | 0.00 | 0.00 | 0.00 | 51 | 1012.5 |
| 20260505190216 | 53 | 293 | 5.0 | 6.0 | 0.00 | 0.00 | 0.00 | 50 | 1012.6 |
| 20260505185217 | 53 | 293 | 4.0 | 7.0 | 0.00 | 0.00 | 0.00 | 53 | 1012.5 |
| 20260505184236 | 53 | 270 | 6.0 | 9.0 | 0.00 | 0.00 | 0.00 | 52 | 1012.6 |
| 20260505183216 | 53 | 338 | 6.0 | 10.0 | 0.00 | 0.00 | 0.00 | 50 | 1012.7 |
| 20260505182216 | 53 | 293 | 4.0 | 7.0 | 0.00 | 0.00 | 0.00 | 50 | 1012.6 |
| 20260505181216 | 53 | 293 | 4.0 | 6.0 | 0.00 | 0.00 | 0.00 | 48 | 1012.5 |
| 20260505180216 | 53 | 293 | 3.0 | 5.0 | 0.00 | 0.00 | 0.00 | 50 | 1012.6 |